COSMOS 2251 DEB, 40228

Orbit data source: Space-Track

COSMOS 2251 DEB, 40228 is space debris in LEO originally from a launch on Wed, 16 Jun 1993 UTC launched from the Plesetsk Missile And Space Complex (PKMTR). The debris from Iridium 33, an American commercial communications satellite, has been tracked extensively since its accidental collision with the defunct Russian satellite Cosmos 2251 in 2009. This event, occurring at high speed in low Earth orbit (LEO), generated thousands of pieces of space debris, significantly increasing the risk of further collisions. The Iridium 33 debris cloud has impacted space traffic management and orbital debris mitigation strategies, making it a subject of ongoing study in space situational awareness.

Loading next visibility...
Identifier
40228, 1993-036BVH
Orbit
LEO
Country
Flag of CISCIS
Related business
Manufacturer
Unknown
Mission
Spacecraft
Bus & Motor
Unknown
Mass
Unknown
Launch date (UTC)
1993-06-16 (33 years ago)
Launch vehicle
Unknown
Launch site
Plesetsk Missile And Space Complex (PKMTR)
Object type
Payload
Rocket body
Debris
Shape & HBR
Unknown shape, 0.1 m
Radar Cross Section
Small (<0.1 m²)

Expand to show TLE details & history
Last TLE update: 1 day ago

TLE from 1 day ago
0 COSMOS 2251 DEB
1 40228U 93036BVH 26253.37848442  .00000451  00000-0  14658-3 0  9992
2 40228  74.0532 118.1621 0022693 116.2204  58.7981 14.41445704628342
Epoch: 2026-09-10T09:05Z
TLE epoch observation values (Epoch: 2026-09-10T09:05:01.053Z)
Latitude
4.49196°
Longitude
171.21126°
Altitude
747.515 km
Speed
7.486 km/s
True Right ascension
19h 47m 31s
True Declination
4° 27' 55"
Sunlit
Object was in full shadow at epoch
Visualization orbit readout
Latitude
Unknown
Longitude
Unknown
Altitude
Unknown
Speed
Unknown
Apparent Right ascension
Unknown
Apparent Declination
Unknown
Sunlit
N/A
Visualization observer readout
Local Sidereal Time
05:25:02
Azimuth
Unknown
Elevation
Unknown
Doppler factor
Unknown
Orbital elements
Apogee altitude
767.521 km
Perigee altitude
735.163 km
Semi-major axis
7,129.479 km
Eccentricity
0.00227
Inclination
74.0532°
RAAN
118.1621°
Arg. of periapsis
116.2204°
True anomaly
59.02085°
Mean anomaly
58.7981°
Eccentric anomaly
58.90944°
Mean motion
3.60542 °/min
Orbital period
99.85 mins
BSTAR
0.00014658
Loading maneuver chart data...
Computing Atmospheric mass density...

Documentation

Showing up to 5 results
|